SCP
0 0 0 0 0 0 0 0 0 0 0 0 0 0 0 0 0 0 0 0 0 0 -0 0 0 0 0 0 0 0 0 0 0 0 0 0 -0 -0 -0 0 0 0 0
0 0 0 0 0 0 0 0 0 0 0 0 0 0 0 0 0 0 0 0 0 0 0 0 0 0 0 0 0 0 0 0 0 0 0 0 0 -0 -0 0 0 0 0
0 0 0 0 0 0 0 0 0 0 0 0 0 0 0 0 0 0 0 0 0 0 0 0 0 0 0 0 0 0 0 0 0 0 0 0 0 0 0 -0 -0 0 0
0 0 0 0 0 0 0 0 0 0 0 0 0 0 0 0 0 0 0 0 0 0 0 0 0 0 0 0 0 0 0 0 0 0 0 0 0 0 0 0 0 0 0
0 0 0 0 0 0 0 0 0 0 0 0 0 0 0 0 0 0 0 0 0 0 0 0 0 0 0 0 0 0 0 0 0 0 0 0 0 0 0 0 0 0 0
0 0 0 0 0 0 0 0 0 0 0 0 0 0 0 0 0 0 0 0 0 0 0 0 0 0 0 0 0 0 0 0 0 0 0 0 0 0 0 0 0 0 0
0 0 0 0 0 0 0 0 0 0 0 0 0 0 0 0 0 0 0 0 0 0 0 0 0 0 0 0 0 0 0 0 0 0 0 0 0 0 0 0 0 0 0
0 0 0 0 0 0 0 0 0 0 0 0 0 0 0 0 0 0 0 0 0 0 0 0 0 0 0 0 0 0 0 0 0 0 0 0 0 0 0 0 0 0 0
0 0 0 0 0 0 0 0 0 0 0 0 0 0 0 0 0 0 0 0 0 0 0 0 0 0 0 0 0 0 0 0 0 0 0 0 0 0 0 0 0 0 0
0 0 0 0 0 0 0 0 0 0 0 0 0 0 0 0 0 0 0 0 0 0 0 0 0 0 0 0 0 0 0 0 0 0 0 0 0 0 0 0 0 0 0
-0 -0 -0 0 0 0 0 0 0 0 0 0 1 1 0 0 0 0 1 1 1 0 0 0 0 0 0 0 0 0 0 0 0 0 0 1 1 0 0 0 0 0 0
-0 -0 -0 -0 0 0 0 0 0 0 1 1 1 1 1 0 0 0 1 1 1 1 0 0 0 0 0 0 1 1 0 0 0 0 0 1 1 0 0 0 0 0 0
-0 -0 -0 -0 0 0 0 0 0 0 1 1 1 1 1 1 1 1 1 1 1 1 1 1 1 0 0 1 1 1 1 0 0 0 1 1 1 0 0 0 0 0 0
-0 -0 -0 0 0 0 0 0 0 0 1 1 1 1 1 1 1 1 1 1 1 1 1 1 1 1 1 1 1 1 1 1 1 1 1 1 1 1 0 0 0 0 0
-0 -0 0 0 0 0 0 1 1 1 1 1 1 1 1 1 1 1 1 1 1 1 1 1 1 1 1 1 1 1 1 1 1 1 1 1 1 1 0 0 0 0 0
0 0 0 0 0 1 1 1 1 1 1 1 1 1 1 1 1 1 1 1 1 1 1 1 1 1 1 1 1 1 1 1 1 1 1 1 1 1 1 0 0 0 0
0 0 0 0 1 1 1 1 1 1 1 1 1 1 1 1 1 1 1 1 1 1 1 1 2 2 2 2 2 1 1 1 1 1 1 1 1 1 1 1 1 1 1
1 1 1 1 1 1 1 1 1 1 1 1 1 1 1 1 1 1 1 1 1 1 1 2 2 2 2 2 2 2 2 2 1 1 1 1 1 1 1 1 1 1 1
1 1 1 1 1 1 1 1 0 1 1 1 1 1 1 1 1 1 1 1 1 1 2 2 2 2 2 2 2 2 2 2 1 1 1 1 1 1 1 1 1 1 1
1 1 1 1 1 1 0 0 0 0 0 0 0 0 0 0 0 1 1 1 1 1 1 2 2 2 2 2 2 2 2 2 2 1 1 1 1 1 1 1 1 1 1
1 1 1 1 0 0 0 0 0 0 0 0 0 0 0 0 0 0 0 1 1 1 1 1 2 2 2 2 2 2 2 2 2 2 1 1 1 1 1 1 1 1 1
1 1 1 1 0 0 0 0 0 0 0 0 0 0 0 0 0 0 0 0 1 1 1 1 1 1 2 2 2 2 2 2 2 1 1 1 1 1 1 1 1 1 1
1 1 1 1 0 0 0 0 0 0 0 0 0 0 0 0 0 0 0 0 0 0 1 1 1 1 1 2 2 2 2 2 1 1 1 1 1 1 1 1 1 1 1
1 1 1 1 1 1 1 1 1 1 0 0 0 0 0 0 0 0 0 0 0 0 0 1 1 1 1 1 1 2 2 2 1 1 1 1 1 1 1 1 1 1 1
1 1 1 1 1 1 1 1 1 1 1 0 0 0 0 0 0 0 0 0 0 0 0 0 0 1 1 1 1 1 1 1 1 1 1 1 1 1 1 1 1 1 1
1 1 1 1 1 1 1 1 1 1 1 1 1 0 0 0 0 0 0 0 0 0 0 0 0 1 1 1 1 1 1 1 1 1 1 1 1 1 1 1 1 1 1
Wind_Speed
13 17 20 16 14 13 13 14 14 15 15 15 14 13 12 12 10 9 9 8 8 7 7 8 8 7 8 8 8 9 9 8 8 8 9 8 7 7 7 7 7 8 10
15 18 20 16 15 14 14 14 14 14 14 14 13 13 12 11 10 9 8 8 7 7 6 6 6 6 7 7 8 8 8 8 7 8 8 8 7 6 5 4 3 7 9
17 19 19 16 15 14 14 14 14 14 14 13 13 12 11 10 9 9 8 7 7 6 6 5 5 5 5 6 6 7 7 6 6 6 7 7 9 6 5 4 2 7 7
17 17 17 18 16 15 14 13 13 13 13 13 12 11 10 10 9 8 7 7 6 6 5 5 4 4 4 5 5 5 5 5 5 6 8 5 7 10 6 6 5 6 7
16 15 17 18 16 15 14 13 13 13 12 12 11 10 10 9 8 8 7 6 5 5 5 4 4 4 4 4 4 4 4 5 5 9 4 3 3 9 6 7 7 7 8
16 15 18 18 16 15 14 13 13 12 12 11 10 10 9 9 8 7 6 6 5 5 5 5 5 5 5 5 5 5 5 5 8 10 5 6 5 9 7 8 9 10 10
15 14 18 17 16 15 14 13 12 12 11 11 11 10 9 9 8 8 7 7 6 6 6 6 6 6 6 6 7 7 7 7 11 9 6 7 5 8 7 9 10 12 13
14 14 16 16 15 15 14 13 13 12 12 11 11 11 10 9 9 8 8 8 8 8 7 7 7 7 7 8 8 8 9 10 11 11 9 9 5 7 8 10 11 12 14
13 13 14 16 14 14 12 12 12 12 11 11 11 11 11 10 10 10 9 9 9 9 9 9 9 9 9 9 9 10 10 11 12 9 9 7 8 9 11 12 13 13 14
12 12 12 13 13 13 13 13 11 11 11 11 11 11 11 11 11 12 11 12 11 11 11 11 11 11 10 10 11 11 11 11 14 13 8 6 11 11 13 14 14 14 14
11 10 11 12 11 10 10 12 13 12 12 11 12 13 11 11 12 11 14 10 11 12 12 12 12 12 11 13 14 14 12 10 12 9 7 5 11 12 14 15 15 16 15
13 12 10 10 10 9 8 8 8 10 10 11 9 10 10 9 7 8 2 7 11 13 14 14 14 13 13 11 13 15 9 11 10 8 7 9 11 13 15 16 16 16 16
13 12 11 10 9 9 6 6 5 5 6 8 10 9 7 7 6 7 6 7 11 13 12 12 13 11 10 8 6 7 9 8 6 7 6 10 12 14 16 16 16 16 17
12 12 11 11 9 8 7 6 6 6 5 6 6 8 7 5 6 7 6 7 7 6 7 8 7 10 10 10 10 10 10 7 7 6 5 8 11 13 15 16 16 16 16
11 11 11 10 9 8 7 6 6 6 6 6 6 6 8 7 8 8 6 7 9 8 8 8 9 9 9 10 11 11 11 10 9 8 6 8 11 13 15 16 15 15 15
11 11 10 10 10 8 7 6 6 7 6 7 6 8 9 8 8 8 8 8 9 9 9 8 9 9 9 9 10 11 11 11 10 9 9 8 11 13 15 15 15 15 15
11 10 9 10 9 9 8 8 7 7 6 6 6 7 8 9 9 8 9 9 9 9 10 9 10 9 9 9 11 12 11 11 10 10 10 8 8 11 14 15 15 15 15
9 9 9 8 8 8 7 6 5 5 6 6 6 6 8 9 9 9 9 9 9 9 9 9 9 9 9 9 10 10 9 9 11 11 11 10 8 9 10 14 15 15 16
8 8 8 8 7 6 5 4 5 4 5 5 5 5 6 8 8 8 8 9 9 9 9 10 9 9 10 11 11 10 10 10 11 12 13 13 11 10 9 9 13 15 17
9 8 8 7 6 5 4 3 3 4 4 4 4 4 6 6 7 8 9 9 10 9 9 9 10 10 10 10 11 11 10 11 11 12 13 13 12 12 12 12 10 11 17
9 9 8 7 6 5 4 3 3 2 2 2 3 3 5 6 7 7 9 8 9 9 10 11 10 12 11 9 9 10 11 14 13 12 12 12 13 13 12 12 11 10 9
8 7 7 7 7 7 5 3 2 2 3 2 3 3 5 6 7 7 8 9 9 8 11 11 11 10 10 8 7 8 8 9 12 13 12 12 14 12 13 14 12 12 11
5 6 5 5 6 6 6 4 3 4 4 4 3 3 4 6 7 7 9 10 9 11 10 10 10 12 11 10 9 9 8 9 7 9 12 11 12 11 11 11 13 13 13
1 2 3 4 5 5 6 6 5 4 4 4 4 4 5 6 7 7 8 9 9 10 10 11 11 10 11 11 9 10 12 10 8 8 7 9 11 11 11 10 10 11 11
5 4 4 4 5 6 6 6 6 7 5 4 4 5 6 6 6 7 8 8 9 9 10 11 11 12 11 12 11 10 11 11 13 11 10 8 8 8 8 8 8 8 8
7 6 5 5 5 6 6 7 8 8 7 7 7 7 6 5 5 6 7 8 9 9 10 11 11 13 12 13 12 11 11 10 10 11 11 10 8 6 5 4 4 4 4
Wind_Direction
153 141 147 157 153 146 140 136 136 139 140 140 139 140 141 140 139 135 130 125 120 114 110 110 113 111 108 105 108 115 117 118 120 120 117 114 112 114 118 129 172 134 121
144 141 149 157 156 151 144 140 138 140 142 143 144 145 145 145 143 141 139 136 131 124 118 115 118 118 115 114 116 120 124 128 132 132 135 136 127 122 129 149 299 103 140
143 142 153 159 159 155 150 146 144 144 146 147 148 149 149 149 148 148 147 145 142 136 131 128 126 125 125 125 128 132 135 141 148 150 189 168 136 144 150 158 122 128 155
146 147 157 157 162 159 155 153 151 151 152 154 155 155 156 156 157 157 156 156 156 152 149 149 149 146 144 144 145 148 152 158 168 192 214 155 148 141 173 177 178 175 175
145 148 149 160 164 162 160 160 159 158 158 160 162 164 165 165 166 167 167 170 173 173 173 175 177 174 172 171 171 172 176 184 196 235 225 199 168 137 181 192 194 197 196
149 154 149 165 167 166 166 166 166 166 167 169 171 173 174 175 177 180 182 188 196 199 202 203 204 201 198 200 201 204 208 213 228 231 218 228 209 150 196 210 205 205 206
155 155 151 167 169 171 172 173 174 175 177 179 181 183 186 189 193 198 202 208 216 223 227 226 224 223 218 217 219 221 223 227 250 255 235 236 226 148 209 232 224 213 210
157 159 149 166 173 175 178 180 182 184 186 189 192 194 198 202 207 213 218 222 226 231 236 240 238 236 233 232 231 232 232 242 245 246 241 242 187 163 225 244 245 231 219
161 159 157 168 175 180 184 188 191 195 198 200 203 206 209 213 218 223 228 231 234 234 235 238 241 242 240 238 238 239 238 240 262 260 247 239 167 191 230 242 247 245 235
166 168 167 176 175 182 185 191 200 205 209 212 215 218 221 224 227 228 232 225 232 240 240 240 241 243 243 241 239 239 241 242 247 252 243 220 168 202 229 240 244 247 244
175 178 181 179 178 191 196 183 196 207 214 219 220 220 228 237 234 218 226 215 227 240 244 245 245 246 246 237 234 235 235 243 247 252 254 178 173 212 234 240 242 244 245
181 187 187 194 181 198 205 190 209 213 208 219 233 226 226 240 257 266 213 214 240 246 248 245 246 247 243 244 222 214 234 239 254 250 237 178 195 223 238 241 243 243 243
184 190 190 194 192 205 210 219 218 228 226 226 234 244 252 265 259 255 253 219 225 233 241 231 229 237 239 241 256 234 243 258 256 261 250 183 206 228 239 242 242 241 241
187 191 195 190 198 210 224 227 232 239 237 247 239 243 251 252 260 265 264 270 264 249 247 257 252 249 251 253 248 251 250 246 253 260 259 206 217 233 243 244 243 241 239
188 192 194 194 198 204 216 241 245 253 258 251 259 251 254 256 258 262 264 263 266 267 256 247 255 261 257 253 250 247 250 251 251 254 254 221 224 236 245 248 247 244 239
190 192 191 197 200 206 212 224 244 255 251 264 258 254 255 262 265 267 264 262 263 264 265 265 261 256 252 251 251 249 249 251 249 251 255 246 224 232 242 248 251 250 245
188 189 192 199 201 207 221 228 237 246 253 258 264 262 259 263 266 266 269 267 264 266 264 261 260 257 252 248 247 247 246 246 248 246 249 254 250 232 231 237 244 248 249
186 185 192 200 199 205 219 239 257 267 273 272 274 273 272 276 275 273 271 271 272 269 264 259 255 253 250 249 248 247 246 242 244 245 247 244 248 256 241 230 233 239 247
182 183 187 196 196 199 207 226 251 265 272 279 283 288 294 290 289 284 282 282 279 273 268 265 259 254 254 251 250 245 244 243 243 245 247 246 244 246 255 246 231 232 242
170 177 182 182 185 184 192 208 239 253 263 272 289 301 301 297 298 298 287 286 286 277 270 264 265 260 258 257 258 256 249 245 243 243 244 244 243 243 247 255 253 238 231
168 170 174 174 168 180 187 207 211 221 252 280 291 313 304 304 307 299 295 299 288 284 283 279 272 266 260 255 257 257 252 245 242 242 239 242 242 241 241 246 252 258 249
160 166 169 174 173 185 178 195 221 264 269 293 302 303 297 305 305 296 300 294 291 289 280 277 274 272 270 254 247 257 259 247 235 235 235 235 240 241 242 243 245 247 255
160 173 183 179 184 192 187 199 200 218 241 244 272 281 300 303 298 299 297 294 298 290 285 285 281 271 270 265 245 245 254 254 260 238 228 233 237 238 242 246 245 246 246
289 222 210 208 211 206 208 220 228 252 274 300 299 304 300 288 293 296 293 292 290 289 289 281 276 276 270 266 255 243 250 269 269 267 239 229 231 235 241 246 249 247 248
320 300 268 248 239 232 234 233 240 251 266 278 288 286 287 291 289 291 292 293 289 284 285 284 283 275 270 265 263 255 249 249 249 256 261 249 232 230 231 236 245 252 255
346 325 301 278 266 259 253 253 253 264 272 281 283 290 288 293 293 296 295 292 287 287 285 280 276 270 266 266 264 260 254 249 243 241 247 249 248 242 228 236 250 253 253